SCP
0 0 0 0 0 0 0 0 0 0 0 0 0 0 0 0 0 0 0 0 0 0 0 0 0 0 0 0 0 0 0 0 0 0 0 0 0 0 0 0 0 0 0 0
0 0 0 0 0 0 0 0 0 0 0 0 0 0 0 0 0 0 0 0 0 0 0 0 0 0 0 0 0 0 0 0 0 0 0 0 0 0 0 0 0 0 0 0
0 0 0 0 0 0 0 0 0 0 0 0 0 -0 -0 -0 0 0 0 0 -0 -0 0 -0 0 0 0 0 0 0 0 0 0 0 0 0 0 0 0 0 0 0 0 0
0 0 0 0 0 0 0 0 0 0 0 0 0 -0 -0 -0 -0 0 -0 0 0 0 0 -0 -0 -0 0 0 0 0 0 0 0 0 0 0 0 0 0 0 0 0 0 0
0 0 0 0 0 0 0 0 0 0 0 0 0 -0 -0 -0 -0 -0 -0 0 0 0 0 0 0 0 0 0 0 0 -0 -0 0 0 0 0 0 0 0 0 0 0 0 0
0 0 0 0 0 0 0 0 0 0 0 0 0 0 -0 -0 -0 0 0 0 -0 0 0 0 0 0 0 0 0 0 0 0 0 0 -0 0 0 0 0 0 0 0 0 0
-0 0 0 0 0 0 0 0 0 0 0 0 0 0 -0 -0 0 0 0 0 0 0 0 0 0 0 0 0 0 0 0 0 0 0 0 -0 0 0 0 0 0 0 0 0
0 0 0 0 0 0 0 0 0 0 0 0 0 0 -0 -0 0 0 0 0 0 0 0 0 0 0 0 0 0 0 0 0 0 0 0 0 0 0 0 0 0 0 0 0
0 0 0 0 0 0 0 0 0 0 0 0 0 0 0 0 0 0 0 0 0 0 0 0 0 0 0 0 0 0 0 0 0 0 0 0 0 0 0 0 0 0 0 0
0 0 0 0 0 0 0 0 0 0 0 0 0 -0 -0 -0 0 0 0 0 0 0 -0 0 0 0 0 0 0 0 0 0 0 0 0 0 0 0 0 0 0 0 0 0
0 0 0 0 0 0 0 0 0 0 0 0 0 0 0 0 0 0 0 0 0 0 0 0 0 0 0 0 0 0 0 0 0 0 0 0 0 0 0 0 0 0 0 0
0 0 0 0 0 0 0 0 0 0 0 0 0 0 0 -0 0 0 0 0 0 0 0 0 0 0 0 0 0 0 0 0 0 0 0 0 0 0 0 0 0 0 0 0
0 0 0 0 0 -0 0 0 0 0 0 0 0 0 0 0 0 0 0 0 0 0 0 0 0 0 0 0 0 0 0 0 0 0 0 0 0 0 0 0 0 0 0 0
0 0 0 0 0 0 0 0 0 0 0 0 0 0 0 0 0 0 0 0 0 0 0 0 0 0 0 0 0 0 0 0 0 0 0 0 0 0 0 0 0 0 0 0
0 0 0 0 0 0 0 -0 -0 0 0 0 0 0 -0 0 0 0 0 0 0 0 0 0 0 0 0 0 0 0 0 0 0 0 0 0 0 0 0 0 0 0 0 0
0 0 0 0 0 0 0 0 -0 -0 -0 0 0 0 -0 -0 0 0 0 0 0 0 0 0 0 0 0 0 0 0 0 0 0 0 0 0 0 0 0 0 0 0 0 0
0 0 0 0 0 -0 -0 0 -0 -0 -0 0 0 0 0 -0 0 -0 0 0 0 0 -0 0 0 0 0 0 0 0 0 0 0 0 0 0 0 0 0 0 0 0 0 0
0 0 0 0 -0 -0 -0 -0 -0 0 -0 -0 0 0 0 -0 0 -0 0 0 0 0 0 0 0 0 0 0 0 0 0 0 0 0 0 0 0 0 0 0 0 0 0 0
0 0 0 0 -0 -0 -0 -0 -0 -0 -0 0 0 0 -0 -0 0 -0 0 0 0 0 0 0 0 0 0 0 0 0 0 0 0 0 0 0 0 0 0 0 0 0 0 0
0 0 0 0 0 -0 -0 -0 -0 -0 -0 0 0 0 0 0 0 0 0 0 0 0 0 0 0 0 0 0 0 0 0 0 0 0 0 0 0 0 0 0 0 0 0 0
0 0 0 0 0 0 -0 -0 0 0 0 0 0 0 0 0 0 -0 0 0 0 0 0 0 0 0 0 0 0 0 0 0 0 0 0 0 0 0 0 0 0 0 0 0
0 0 0 0 0 -0 -0 -0 -0 0 0 -0 0 -0 0 -0 -0 -0 0 0 0 0 0 0 0 0 0 0 0 0 0 0 0 0 0 0 0 0 0 0 0 0 0 0
0 0 0 0 0 0 0 0 -0 0 0 -0 0 -0 0 0 0 0 0 0 0 0 0 0 0 0 0 0 0 0 0 0 0 0 0 0 0 0 0 0 0 0 0 0
0 0 0 0 0 -0 0 0 0 0 0 0 0 0 0 0 0 0 0 0 0 0 0 0 0 0 0 0 0 0 0 0 0 0 0 0 0 0 0 0 0 0 0 0
0 0 0 0 0 0 0 0 0 0 0 0 0 0 0 0 0 0 0 0 0 0 0 0 0 0 0 0 0 0 0 0 0 0 0 0 0 0 0 0 0 0 0 0
0 0 0 0 0 0 0 0 0 0 0 0 0 0 0 0 0 0 0 0 0 0 0 0 0 0 0 0 0 0 0 0 0 0 0 0 0 0 0 0 0 0 0 0
Wind_Speed_500mb
27 16 34 51 30 5 14 10 14 8 10 8 17 34 32 31 40 43 48 58 57 62 58 55 52 54 56 57 59 60 60 60 59 59 58 58 57 51 48 47 43 45 45 43
14 34 48 30 18 9 5 9 8 1 7 11 10 34 30 27 32 57 64 63 61 67 65 61 59 59 59 56 59 65 65 65 65 64 62 61 57 56 54 50 49 47 48 49
32 38 30 27 24 29 26 20 9 7 5 5 7 33 31 26 44 58 68 71 74 72 69 69 68 66 65 63 59 60 63 67 66 67 67 64 66 65 63 63 58 57 54 53
23 42 21 35 31 35 36 26 10 10 11 14 17 22 28 17 34 34 59 75 82 82 79 71 73 75 75 72 63 59 60 61 64 69 71 72 71 70 65 62 54 53 54 56
14 13 36 24 50 32 20 13 26 29 14 4 10 8 23 17 29 25 42 74 89 83 77 78 73 73 77 73 73 73 69 67 67 66 68 70 74 68 67 61 57 54 51 51
13 12 4 36 21 34 13 11 8 4 20 26 44 27 36 27 16 24 52 76 82 80 86 79 76 76 77 74 71 72 80 79 78 73 69 69 69 67 69 62 57 54 51 49
45 23 3 5 23 19 19 32 17 17 13 11 31 18 53 11 18 30 43 74 96 85 79 82 85 87 91 86 80 74 75 74 78 76 75 72 70 67 65 60 58 57 51 47
30 20 41 29 23 21 46 29 7 22 10 41 17 26 25 25 56 53 68 83 84 76 73 79 89 84 77 86 91 88 87 77 76 70 70 71 74 73 69 66 63 59 56 54
23 22 5 24 25 36 25 39 53 4 4 4 11 22 19 10 12 25 60 62 72 82 80 70 59 63 69 69 83 91 89 84 78 72 66 67 67 72 71 66 66 65 61 58
8 3 11 16 11 36 48 23 24 20 19 21 10 36 31 25 40 22 26 63 94 93 78 69 68 66 60 57 59 68 82 88 78 72 64 59 57 59 63 66 63 60 56 53
6 8 9 8 20 36 28 29 29 27 28 25 37 35 17 32 30 39 45 76 82 84 100 97 83 67 60 61 62 65 72 78 74 71 62 59 58 58 56 56 53 51 49 49
13 1 12 32 15 9 9 8 42 25 30 36 43 47 2 30 45 55 61 86 78 78 83 82 70 57 51 55 57 60 71 71 63 61 59 57 53 51 49 46 43 41 42 41
19 11 5 19 9 20 23 32 30 49 17 27 36 45 9 12 14 43 48 64 73 69 67 60 71 63 53 59 57 56 62 62 58 55 53 53 50 45 40 37 37 35 35 37
48 8 17 26 23 6 25 37 50 53 36 37 38 53 39 18 20 22 47 60 60 65 58 49 55 60 59 59 55 55 55 54 54 55 53 46 41 37 35 34 34 34 37 39
22 12 10 33 33 26 35 28 33 30 48 34 54 50 65 42 23 18 30 35 40 46 49 50 53 63 67 67 63 57 52 53 54 52 48 42 38 36 37 37 36 36 36 34
4 9 8 31 28 19 28 35 47 51 50 39 53 51 59 49 48 45 66 63 57 65 61 50 52 67 73 70 66 59 59 59 56 53 47 43 40 40 40 40 38 36 35 36
10 6 6 27 21 21 20 38 41 43 55 52 48 50 86 56 36 43 39 59 76 84 91 61 59 76 82 80 74 73 67 64 62 54 49 45 44 43 43 42 41 39 38 36
7 8 3 15 9 14 27 22 31 44 53 48 46 57 71 66 63 52 61 75 88 90 93 97 63 70 96 89 82 74 72 68 62 58 53 49 48 47 46 43 43 38 34 32
19 9 5 12 12 30 44 31 16 13 55 54 53 63 69 78 37 60 80 98 94 88 83 93 95 80 92 95 88 81 76 71 67 62 54 53 51 51 47 44 41 35 33 33
25 29 19 11 10 19 55 52 28 30 46 56 43 67 71 70 28 53 126 88 94 98 87 91 105 73 80 97 93 91 88 82 74 62 59 56 54 52 44 41 39 36 34 33
7 10 30 33 20 19 52 32 6 16 21 42 68 88 88 38 75 147 39 76 96 100 96 99 103 81 81 96 103 101 91 87 72 67 61 58 52 47 42 40 37 34 31 31
20 12 13 14 19 39 71 27 37 44 80 79 62 84 79 75 95 91 89 94 82 79 89 95 89 79 85 92 107 107 100 85 76 69 64 56 51 49 44 38 33 31 31 29
20 31 28 29 26 55 45 38 55 80 79 100 77 97 98 82 95 106 97 107 107 105 89 88 88 75 78 87 110 110 98 88 82 73 63 57 54 51 45 39 35 31 28 22
21 26 28 42 60 70 76 70 81 82 97 108 111 95 100 104 113 99 98 96 100 103 106 102 95 94 90 93 105 107 97 91 84 73 66 60 59 55 47 40 35 30 25 23
21 6 45 54 54 66 85 69 87 98 109 117 106 100 102 99 104 110 95 94 97 95 96 102 107 101 97 98 110 107 102 96 86 73 69 65 61 53 46 41 34 32 26 21
11 11 13 29 21 25 26 41 48 64 72 87 109 112 97 79 91 93 94 93 91 97 102 98 99 108 113 108 115 116 108 96 84 78 73 70 62 56 50 46 44 36 27 27
Wind_Direction_500mb
178 207 208 210 207 160 162 175 202 171 154 139 218 253 262 253 247 256 250 245 244 241 243 236 235 233 231 228 228 228 229 231 231 231 230 232 233 234 237 237 238 239 242 243
197 219 219 216 206 238 267 189 180 256 140 196 193 258 255 257 245 249 249 251 252 248 244 244 237 234 234 232 231 231 231 232 233 235 238 241 245 246 247 247 248 249 249 250
211 223 222 213 218 223 234 218 168 169 135 274 36 272 254 255 248 253 255 256 254 252 250 245 240 235 234 234 233 233 234 235 236 237 239 241 246 249 247 246 246 248 252 255
234 251 192 216 224 201 233 212 195 152 166 235 181 274 242 225 239 231 243 248 251 247 246 247 242 240 237 235 233 238 240 239 239 238 240 242 245 249 253 255 257 258 258 260
219 161 209 207 219 207 228 165 206 225 236 275 207 272 274 184 235 244 247 247 250 249 247 247 245 240 239 240 241 243 243 244 243 241 240 244 247 251 254 257 258 258 260 260
228 130 148 226 215 206 148 150 149 152 220 234 228 219 258 234 203 242 249 251 251 248 247 248 246 245 243 242 241 242 241 245 242 240 240 242 246 249 252 254 258 261 262 264
241 230 162 262 225 192 191 211 220 237 228 232 206 199 233 254 204 215 234 246 250 250 251 249 248 247 244 242 241 240 239 239 238 241 242 243 245 247 251 253 256 259 263 267
212 231 202 200 208 204 211 203 198 200 198 229 150 224 234 229 232 237 241 245 252 253 252 252 249 249 250 246 242 241 241 237 234 235 243 247 248 247 249 251 254 259 264 268
191 235 243 181 197 202 205 211 221 18 58 343 179 267 275 206 253 247 242 246 245 253 247 250 250 250 248 247 239 237 236 235 233 236 240 244 246 245 247 252 255 260 265 270
196 314 206 220 189 213 216 194 203 218 207 230 232 239 235 201 218 227 240 245 248 249 243 239 255 248 243 235 232 234 235 233 233 234 236 243 247 248 247 248 254 258 263 266
156 142 225 101 200 216 214 233 215 221 212 235 246 249 196 211 209 219 225 239 245 246 244 251 255 241 242 238 232 233 228 218 223 227 233 239 241 243 243 243 247 251 255 258
195 94 252 240 216 194 241 236 252 210 209 225 230 244 166 215 199 211 218 227 242 250 253 252 252 242 240 228 224 224 214 216 221 227 232 235 237 236 236 238 243 246 248 252
157 211 323 320 250 223 235 248 257 253 217 218 220 247 196 211 202 221 232 239 249 257 260 268 251 245 239 221 214 213 212 217 219 218 219 220 221 224 226 226 231 240 251 259
169 166 189 224 230 341 221 238 250 248 228 221 216 244 219 214 204 214 228 241 249 254 258 264 246 231 224 211 206 205 205 206 209 210 210 207 203 205 213 225 237 248 255 260
173 224 222 255 274 294 268 256 256 274 254 238 227 228 249 238 230 225 248 254 270 267 261 251 246 225 213 207 204 207 208 203 197 194 193 194 203 215 227 235 239 245 251 258
237 262 227 261 261 257 258 287 285 277 256 289 262 267 259 244 239 227 236 253 263 267 267 255 241 225 216 210 209 208 201 195 193 192 196 203 213 220 225 232 239 244 251 255
178 148 99 265 268 277 267 244 254 256 250 238 259 243 257 259 254 242 230 237 245 252 269 263 247 227 218 216 213 208 200 196 197 199 204 209 215 223 231 238 244 247 250 255
182 94 117 267 38 266 245 207 240 255 267 243 234 253 262 258 262 262 245 239 244 246 250 258 254 239 221 217 213 205 200 200 201 204 208 215 222 229 236 242 247 249 249 249
190 152 266 257 241 281 292 261 240 236 266 252 243 242 253 262 287 269 255 247 249 248 249 257 264 257 232 219 211 202 201 203 205 207 213 221 227 234 239 246 245 241 239 241
210 204 199 224 178 237 257 266 247 245 255 251 223 241 246 244 240 255 248 245 246 243 245 259 266 256 237 222 209 203 205 205 206 209 216 222 229 234 235 235 234 234 237 244
141 205 216 239 243 261 259 236 268 232 253 250 229 236 240 223 225 244 260 254 250 248 247 246 247 247 234 217 206 205 206 208 207 212 216 223 227 226 225 225 227 232 239 243
197 180 198 230 236 264 254 272 217 239 244 265 271 260 256 248 254 257 252 248 249 246 239 240 244 243 229 216 208 207 208 206 208 211 216 219 218 217 214 214 218 224 233 236
243 214 229 211 227 242 245 230 239 249 249 259 251 251 260 257 251 249 243 242 243 242 238 238 239 239 230 218 210 210 207 205 209 211 213 212 210 207 208 212 213 217 219 215
250 234 239 254 254 260 264 254 245 248 255 253 256 253 252 251 255 254 250 241 239 241 238 237 241 239 231 219 213 210 207 209 210 211 208 206 203 204 203 204 205 201 199 193
254 199 240 250 255 264 261 268 251 251 252 256 257 249 254 250 253 251 245 247 245 244 243 236 233 236 239 226 211 208 208 209 208 207 205 201 200 201 198 195 192 187 186 184
26 348 269 261 6 314 288 267 276 305 284 269 257 256 251 257 255 257 257 260 261 256 249 237 236 237 233 220 207 204 206 207 207 204 200 199 197 195 193 189 182 178 181 176
Wind_Speed_850mb
27 16 34 51 30 5 14 10 14 8 10 8 17 34 32 31 40 43 48 58 57 62 58 55 52 54 56 57 59 60 60 60 59 59 58 58 57 51 48 47 43 45 45 43
14 34 48 30 18 9 5 9 8 1 7 11 10 34 30 27 32 57 64 63 61 67 65 61 59 59 59 56 59 65 65 65 65 64 62 61 57 56 54 50 49 47 48 49
32 38 30 27 24 29 26 20 9 7 5 5 7 33 31 26 44 58 68 71 74 72 69 69 68 66 65 63 59 60 63 67 66 67 67 64 66 65 63 63 58 57 54 53
23 42 21 35 31 35 36 26 10 10 11 14 17 22 28 17 34 34 59 75 82 82 79 71 73 75 75 72 63 59 60 61 64 69 71 72 71 70 65 62 54 53 54 56
14 13 36 24 50 32 20 13 26 29 14 4 10 8 23 17 29 25 42 74 89 83 77 78 73 73 77 73 73 73 69 67 67 66 68 70 74 68 67 61 57 54 51 51
13 12 4 36 21 34 13 11 8 4 20 26 44 27 36 27 16 24 52 76 82 80 86 79 76 76 77 74 71 72 80 79 78 73 69 69 69 67 69 62 57 54 51 49
45 23 3 5 23 19 19 32 17 17 13 11 31 18 53 11 18 30 43 74 96 85 79 82 85 87 91 86 80 74 75 74 78 76 75 72 70 67 65 60 58 57 51 47
30 20 41 29 23 21 46 29 7 22 10 41 17 26 25 25 56 53 68 83 84 76 73 79 89 84 77 86 91 88 87 77 76 70 70 71 74 73 69 66 63 59 56 54
23 22 5 24 25 36 25 39 53 4 4 4 11 22 19 10 12 25 60 62 72 82 80 70 59 63 69 69 83 91 89 84 78 72 66 67 67 72 71 66 66 65 61 58
8 3 11 16 11 36 48 23 24 20 19 21 10 36 31 25 40 22 26 63 94 93 78 69 68 66 60 57 59 68 82 88 78 72 64 59 57 59 63 66 63 60 56 53
6 8 9 8 20 36 28 29 29 27 28 25 37 35 17 32 30 39 45 76 82 84 100 97 83 67 60 61 62 65 72 78 74 71 62 59 58 58 56 56 53 51 49 49
13 1 12 32 15 9 9 8 42 25 30 36 43 47 2 30 45 55 61 86 78 78 83 82 70 57 51 55 57 60 71 71 63 61 59 57 53 51 49 46 43 41 42 41
19 11 5 19 9 20 23 32 30 49 17 27 36 45 9 12 14 43 48 64 73 69 67 60 71 63 53 59 57 56 62 62 58 55 53 53 50 45 40 37 37 35 35 37
48 8 17 26 23 6 25 37 50 53 36 37 38 53 39 18 20 22 47 60 60 65 58 49 55 60 59 59 55 55 55 54 54 55 53 46 41 37 35 34 34 34 37 39
22 12 10 33 33 26 35 28 33 30 48 34 54 50 65 42 23 18 30 35 40 46 49 50 53 63 67 67 63 57 52 53 54 52 48 42 38 36 37 37 36 36 36 34
4 9 8 31 28 19 28 35 47 51 50 39 53 51 59 49 48 45 66 63 57 65 61 50 52 67 73 70 66 59 59 59 56 53 47 43 40 40 40 40 38 36 35 36
10 6 6 27 21 21 20 38 41 43 55 52 48 50 86 56 36 43 39 59 76 84 91 61 59 76 82 80 74 73 67 64 62 54 49 45 44 43 43 42 41 39 38 36
7 8 3 15 9 14 27 22 31 44 53 48 46 57 71 66 63 52 61 75 88 90 93 97 63 70 96 89 82 74 72 68 62 58 53 49 48 47 46 43 43 38 34 32
19 9 5 12 12 30 44 31 16 13 55 54 53 63 69 78 37 60 80 98 94 88 83 93 95 80 92 95 88 81 76 71 67 62 54 53 51 51 47 44 41 35 33 33
25 29 19 11 10 19 55 52 28 30 46 56 43 67 71 70 28 53 126 88 94 98 87 91 105 73 80 97 93 91 88 82 74 62 59 56 54 52 44 41 39 36 34 33
7 10 30 33 20 19 52 32 6 16 21 42 68 88 88 38 75 147 39 76 96 100 96 99 103 81 81 96 103 101 91 87 72 67 61 58 52 47 42 40 37 34 31 31
20 12 13 14 19 39 71 27 37 44 80 79 62 84 79 75 95 91 89 94 82 79 89 95 89 79 85 92 107 107 100 85 76 69 64 56 51 49 44 38 33 31 31 29
20 31 28 29 26 55 45 38 55 80 79 100 77 97 98 82 95 106 97 107 107 105 89 88 88 75 78 87 110 110 98 88 82 73 63 57 54 51 45 39 35 31 28 22
21 26 28 42 60 70 76 70 81 82 97 108 111 95 100 104 113 99 98 96 100 103 106 102 95 94 90 93 105 107 97 91 84 73 66 60 59 55 47 40 35 30 25 23
21 6 45 54 54 66 85 69 87 98 109 117 106 100 102 99 104 110 95 94 97 95 96 102 107 101 97 98 110 107 102 96 86 73 69 65 61 53 46 41 34 32 26 21
11 11 13 29 21 25 26 41 48 64 72 87 109 112 97 79 91 93 94 93 91 97 102 98 99 108 113 108 115 116 108 96 84 78 73 70 62 56 50 46 44 36 27 27
Wind_Direction_850mb
178 207 208 210 207 160 162 175 202 171 154 139 218 253 262 253 247 256 250 245 244 241 243 236 235 233 231 228 228 228 229 231 231 231 230 232 233 234 237 237 238 239 242 243
197 219 219 216 206 238 267 189 180 256 140 196 193 258 255 257 245 249 249 251 252 248 244 244 237 234 234 232 231 231 231 232 233 235 238 241 245 246 247 247 248 249 249 250
211 223 222 213 218 223 234 218 168 169 135 274 36 272 254 255 248 253 255 256 254 252 250 245 240 235 234 234 233 233 234 235 236 237 239 241 246 249 247 246 246 248 252 255
234 251 192 216 224 201 233 212 195 152 166 235 181 274 242 225 239 231 243 248 251 247 246 247 242 240 237 235 233 238 240 239 239 238 240 242 245 249 253 255 257 258 258 260
219 161 209 207 219 207 228 165 206 225 236 275 207 272 274 184 235 244 247 247 250 249 247 247 245 240 239 240 241 243 243 244 243 241 240 244 247 251 254 257 258 258 260 260
228 130 148 226 215 206 148 150 149 152 220 234 228 219 258 234 203 242 249 251 251 248 247 248 246 245 243 242 241 242 241 245 242 240 240 242 246 249 252 254 258 261 262 264
241 230 162 262 225 192 191 211 220 237 228 232 206 199 233 254 204 215 234 246 250 250 251 249 248 247 244 242 241 240 239 239 238 241 242 243 245 247 251 253 256 259 263 267
212 231 202 200 208 204 211 203 198 200 198 229 150 224 234 229 232 237 241 245 252 253 252 252 249 249 250 246 242 241 241 237 234 235 243 247 248 247 249 251 254 259 264 268
191 235 243 181 197 202 205 211 221 18 58 343 179 267 275 206 253 247 242 246 245 253 247 250 250 250 248 247 239 237 236 235 233 236 240 244 246 245 247 252 255 260 265 270
196 314 206 220 189 213 216 194 203 218 207 230 232 239 235 201 218 227 240 245 248 249 243 239 255 248 243 235 232 234 235 233 233 234 236 243 247 248 247 248 254 258 263 266
156 142 225 101 200 216 214 233 215 221 212 235 246 249 196 211 209 219 225 239 245 246 244 251 255 241 242 238 232 233 228 218 223 227 233 239 241 243 243 243 247 251 255 258
195 94 252 240 216 194 241 236 252 210 209 225 230 244 166 215 199 211 218 227 242 250 253 252 252 242 240 228 224 224 214 216 221 227 232 235 237 236 236 238 243 246 248 252
157 211 323 320 250 223 235 248 257 253 217 218 220 247 196 211 202 221 232 239 249 257 260 268 251 245 239 221 214 213 212 217 219 218 219 220 221 224 226 226 231 240 251 259
169 166 189 224 230 341 221 238 250 248 228 221 216 244 219 214 204 214 228 241 249 254 258 264 246 231 224 211 206 205 205 206 209 210 210 207 203 205 213 225 237 248 255 260
173 224 222 255 274 294 268 256 256 274 254 238 227 228 249 238 230 225 248 254 270 267 261 251 246 225 213 207 204 207 208 203 197 194 193 194 203 215 227 235 239 245 251 258
237 262 227 261 261 257 258 287 285 277 256 289 262 267 259 244 239 227 236 253 263 267 267 255 241 225 216 210 209 208 201 195 193 192 196 203 213 220 225 232 239 244 251 255
178 148 99 265 268 277 267 244 254 256 250 238 259 243 257 259 254 242 230 237 245 252 269 263 247 227 218 216 213 208 200 196 197 199 204 209 215 223 231 238 244 247 250 255
182 94 117 267 38 266 245 207 240 255 267 243 234 253 262 258 262 262 245 239 244 246 250 258 254 239 221 217 213 205 200 200 201 204 208 215 222 229 236 242 247 249 249 249
190 152 266 257 241 281 292 261 240 236 266 252 243 242 253 262 287 269 255 247 249 248 249 257 264 257 232 219 211 202 201 203 205 207 213 221 227 234 239 246 245 241 239 241
210 204 199 224 178 237 257 266 247 245 255 251 223 241 246 244 240 255 248 245 246 243 245 259 266 256 237 222 209 203 205 205 206 209 216 222 229 234 235 235 234 234 237 244
141 205 216 239 243 261 259 236 268 232 253 250 229 236 240 223 225 244 260 254 250 248 247 246 247 247 234 217 206 205 206 208 207 212 216 223 227 226 225 225 227 232 239 243
197 180 198 230 236 264 254 272 217 239 244 265 271 260 256 248 254 257 252 248 249 246 239 240 244 243 229 216 208 207 208 206 208 211 216 219 218 217 214 214 218 224 233 236
243 214 229 211 227 242 245 230 239 249 249 259 251 251 260 257 251 249 243 242 243 242 238 238 239 239 230 218 210 210 207 205 209 211 213 212 210 207 208 212 213 217 219 215
250 234 239 254 254 260 264 254 245 248 255 253 256 253 252 251 255 254 250 241 239 241 238 237 241 239 231 219 213 210 207 209 210 211 208 206 203 204 203 204 205 201 199 193
254 199 240 250 255 264 261 268 251 251 252 256 257 249 254 250 253 251 245 247 245 244 243 236 233 236 239 226 211 208 208 209 208 207 205 201 200 201 198 195 192 187 186 184
26 348 269 261 6 314 288 267 276 305 284 269 257 256 251 257 255 257 257 260 261 256 249 237 236 237 233 220 207 204 206 207 207 204 200 199 197 195 193 189 182 178 181 176